Back to catalog

ABS 2

AliveCommunicationsGEO
NORAD 39508·PAYLOAD·🇦🇪 UAE🇧🇲 BM

Launched Feb 6, 2014 from Guiana Space Centre

Loading…

TLE

FreshSource: Space-Track

Epoch: Sep 14, 2026, 14:09 UTC

1 39508U 14006A   26257.59000774 -.00000095  00000-0  00000-0 0  9995
2 39508   0.0215 247.9232 0003298 284.4770 108.5020  1.00275411 46173

Track ABS 2 in real time with AllMySat

Download on the App Store